Voltar ao catálogo

STARLINK-34554

AtivoComunicaçõesVLEO
NORAD 64687·PAYLOAD·🇺🇸 United States

Lançado Jun 28, 2025 de Cape Canaveral Space Force Station

Loading…

Próximas Passagens (próximas 24 horas)

TLE

AtualizadoSource: CelesTrak SupGP

Época: Sep 14, 2026, 22:59 UTC

1 64687C 25139Z   26257.95812500  .00027486  00000+0  81245-3 0  2579
2 64687  53.1583 323.5118 0001250  94.2838 274.8392 15.34361959    15

Acompanhe STARLINK-34554 em tempo real com AllMySat

Download on the App Store